User: anonymous   Login
Location: Fort Wayne
(41.1310°N, 85.1290°W)
Time: 20:11:30
(UTC-04:00)
Language:

Helios 1B - Orbit

View from above orbital plane
View from above orbital plane
View from above satellite
View from above satellite

Ground track
Ground track

The orbit data is extracted from the following two-line orbital elements,

1 25977U 99064A   16180.21077548  .00000191  00000-0  30983-4 0  9996
2 25977  98.1362 279.6563 0001598  47.0696 313.0650 14.82066899891575
Epoch (UTC): 28 June 2016 05:03:31
Eccentricity: 0.0001598
inclination: 98.1362°
perigee height: 621 km
apogee height: 624 km
right ascension of ascending node: 279.6563°
argument of perigee: 47.0696°
revolutions per day: 14.82066899
mean anomaly at epoch: 313.0650°
orbit number at epoch: 89157

The dashed part of the orbit path shows where the satellite is in the earth's shadow,  

DLR